Location: Santiago
(33.4378°S, 70.6505°W)
Time: 15:17:48
(UTC+00:00)

ISS - Pass Details

Date: 07 April 2024
Orbit: 410 x 417 km, 51.6° (Epoch: 25 April)

Event Time Altitude Azimuth Distance (km) Brightness Sun altitude
Exits shadow 10:17:05 11° 238° (WSW) 1,478 -1.5 -9.6°
Maximum altitude 10:20:16 47° 312° (NW) 569 -3.4 -9.0°
Drops below altitude 10° 10:23:30 10° 27° (NNE) 1,490 -0.5 -8.3°
Sets 10:25:37 0° 33° (NNE) 2,342 0.6 -7.9°
